Weather reports worldwide

Advertisment
Alesund/Vigra, Norway (1210): temperature & dewpoint: 23.09.2020 06:00:00 - 29.09.2020 06:00:00 (CEST)Alesund/Vigra, Norway (1210): wind speed & gusts: 23.09.2020 06:00:00 - 29.09.2020 06:00:00 (CEST)Alesund/Vigra, Norway (1210): wind direction: 23.09.2020 06:00:00 - 29.09.2020 06:00:00 (CEST)Alesund/Vigra, Norway (1210): reduced air pressure: 23.09.2020 06:00:00 - 29.09.2020 06:00:00 (CEST)Alesund/Vigra, Norway (1210): visibility: 23.09.2020 06:00:00 - 29.09.2020 06:00:00 (CEST)
Date & Time tt [°C] td [°C] ff [km/h] ff [kn] fx [km/h] fx [kn] dd ppp [hPa] vv [km]
29.09.2020 06:00:00 12,0 11,0 9 5 - - W - 2,8
29.09.2020 05:00:00 12,2 11,3 16 9 21 11 W 1011,5 10
29.09.2020 04:00:00 12,1 10,4 13 7 16 9 SSE 1010,9 10
29.09.2020 03:00:00 12,4 10,7 15 8 18 10 SSE 1010,8 10
29.09.2020 02:00:00 11,8 10,7 8 4 11 6 SSE 1010,5 10
29.09.2020 01:00:00 12,0 10,0 9 5 - - SE - 10
29.09.2020 00:00:00 11,6 10,4 9 5 12 6 SSE 1010,2 10
28.09.2020 23:00:00 11,2 10,3 5 3 9 5 SE 1010,3 10
28.09.2020 22:00:00 11,6 10,6 2 1 6 4 - 1010,4 10
28.09.2020 21:00:00 12,0 10,5 0 0 9 5 N 1010,1 10
28.09.2020 20:00:00 12,3 10,0 5 3 13 7 - 1009,9 10
28.09.2020 19:00:00 13,2 9,0 13 7 17 9 NE 1009,8 10
28.09.2020 18:00:00 13,9 9,5 5 3 14 8 NNE 1009,6 10
28.09.2020 17:00:00 14,6 9,4 0 0 6 4 N 1009,9 10
28.09.2020 16:00:00 14,8 9,8 8 4 13 7 N 1010,1 10
28.09.2020 15:00:00 15,0 10,0 8 4 - - NNW - 10
28.09.2020 14:00:00 16,5 8,7 5 3 17 9 NNE 1010,9 10
28.09.2020 13:00:00 15,0 9,4 9 5 13 7 NNE 1011,0 10
28.09.2020 12:00:00 14,4 9,9 5 3 8 4 NE 1011,4 10
28.09.2020 11:00:00 15,0 9,9 2 1 8 4 - 1011,8 10
28.09.2020 10:00:00 0,0 0,0 4 2 11 6 SE 1011,8 10
28.09.2020 09:00:00 12,5 11,2 0 0 5 3 N 1012,0 10
28.09.2020 08:00:00 12,0 10,7 5 3 6 3 ESE 1012,1 10
28.09.2020 07:00:00 12,0 11,0 4 2 - - - - 10
28.09.2020 06:00:00 12,1 10,5 4 2 5 3 SE - 10
28.09.2020 05:00:00 0,0 0,0 0 0 7 4 N 1012,1 10
28.09.2020 04:00:00 12,4 10,4 5 3 8 4 - 1012,1 10
28.09.2020 03:00:00 12,6 10,0 8 4 10 5 SSE 1012,0 10
28.09.2020 02:00:00 12,8 10,0 5 3 13 7 SE 1012,2 10
28.09.2020 01:00:00 12,6 9,5 13 7 16 9 SSE 1012,2 10
28.09.2020 00:00:00 12,5 10,1 11 6 16 9 SSE 1012,4 10
27.09.2020 23:00:00 12,5 9,4 9 5 17 9 SSE 1012,8 10
27.09.2020 22:00:00 12,2 9,6 8 4 16 9 SSE 1012,8 10
27.09.2020 21:00:00 12,2 10,0 8 4 13 7 E 1012,9 10
27.09.2020 20:00:00 11,5 9,2 8 4 13 7 E 1012,9 10
27.09.2020 19:00:00 0,0 0,0 4 2 9 5 N 1012,7 10
27.09.2020 18:00:00 12,7 9,2 5 3 10 5 N 1012,5 10
27.09.2020 17:00:00 14,4 8,1 6 3 13 7 ENE 1012,6 10
27.09.2020 16:00:00 13,8 7,5 11 6 16 9 ENE 1012,7 10
27.09.2020 15:00:00 13,3 7,4 11 6 16 9 NE 1013,0 10
27.09.2020 14:00:00 13,0 7,8 13 7 20 11 ENE 1013,3 10
27.09.2020 13:00:00 12,3 7,4 15 8 22 12 ENE 1013,7 10
27.09.2020 12:00:00 12,3 7,3 16 9 23 12 NE 1013,8 10
27.09.2020 11:00:00 10,9 6,8 15 8 22 12 E 1014,2 10
27.09.2020 10:00:00 10,4 6,4 9 5 17 9 E 1014,4 10
27.09.2020 09:00:00 9,2 6,1 11 6 15 8 SE 1014,5 10
27.09.2020 08:00:00 6,7 4,7 5 3 30 16 SE 1014,9 10
27.09.2020 07:00:00 7,4 5,0 13 7 32 17 ESE 1015,2 10
27.09.2020 06:00:00 8,8 5,2 26 14 35 19 E 1015,6 10
27.09.2020 05:00:00 8,2 5,3 29 16 39 21 ENE 1015,7 10
27.09.2020 04:00:00 8,6 5,3 34 18 46 25 ENE 1015,8 10
27.09.2020 03:00:00 8,9 5,1 42 23 54 29 ENE 1015,9 10
27.09.2020 02:00:00 9,0 4,8 39 21 52 28 ENE 1016,3 10
27.09.2020 01:00:00 8,9 4,4 37 20 51 27 ENE 1016,8 10
27.09.2020 00:00:00 9,0 4,1 35 19 50 27 ENE 1017,5 10
26.09.2020 23:00:00 9,2 4,3 35 19 54 29 NE 1017,9 10
26.09.2020 22:00:00 9,3 4,6 40 21 56 31 NE 1017,5 10
26.09.2020 21:00:00 9,7 4,5 44 24 63 34 NE 1017,9 10
26.09.2020 20:00:00 9,7 4,9 45 25 59 32 NE 1017,5 -
26.09.2020 19:00:00 9,8 4,6 44 24 62 34 NE 1017,2 10
26.09.2020 18:00:00 10,3 4,4 44 24 64 34 NE 1017,1 10
26.09.2020 17:00:00 10,6 4,5 41 22 61 33 NE 1016,8 10
26.09.2020 16:00:00 10,7 4,8 46 25 58 32 NE 1016,4 10
26.09.2020 15:00:00 11,0 4,0 44 24 - - NE - 10
26.09.2020 14:00:00 10,8 3,4 41 22 58 32 NE 1016,3 10
26.09.2020 13:00:00 10,2 4,1 46 25 59 32 NE 1015,8 10
26.09.2020 12:00:00 9,7 4,4 44 24 63 34 NE 1015,4 10
26.09.2020 11:00:00 9,2 3,8 45 25 63 34 NE 1015,0 -
26.09.2020 10:00:00 8,8 3,5 44 24 66 35 NE 1014,5 10
26.09.2020 09:00:00 8,7 2,7 46 25 63 34 NE 1014,3 10
26.09.2020 08:00:00 8,4 2,3 41 22 61 33 NE 1014,0 10
26.09.2020 07:00:00 8,8 2,7 42 23 61 33 NE - 10
26.09.2020 06:00:00 8,9 2,6 35 19 58 31 NE 1012,7 10
26.09.2020 05:00:00 9,0 4,2 42 23 71 38 NE 1012,5 10
26.09.2020 04:00:00 9,2 4,3 48 26 63 34 NE 1011,6 10
26.09.2020 03:00:00 9,3 4,0 42 23 60 32 NE 1011,2 10
26.09.2020 02:00:00 9,4 4,3 46 25 58 32 NE 1010,5 10
26.09.2020 01:00:00 9,5 5,0 41 22 61 33 NE 1010,7 10
26.09.2020 00:00:00 9,7 4,9 44 24 61 33 NE 1010,5 10
25.09.2020 23:00:00 9,7 5,4 44 24 59 32 NE 1010,6 10
25.09.2020 22:00:00 9,9 5,3 42 23 61 33 NE 1010,6 10
25.09.2020 21:00:00 9,9 4,7 42 23 57 31 NE 1010,6 10
25.09.2020 20:00:00 10,1 5,2 39 21 55 30 NE 1010,1 10
25.09.2020 19:00:00 9,9 5,0 39 21 53 29 NE 1010,0 10
25.09.2020 18:00:00 10,2 5,7 24 13 40 21 NE 1010,2 10
25.09.2020 17:00:00 10,6 5,8 27 15 39 21 ENE 1010,1 -
25.09.2020 16:00:00 11,1 5,8 22 12 32 18 ENE 1010,2 10
25.09.2020 15:00:00 11,6 5,7 22 12 33 18 NE 1010,1 10
25.09.2020 14:00:00 10,7 4,0 21 11 30 16 ENE 1009,8 10
25.09.2020 13:00:00 10,7 5,1 18 10 30 16 NE 1009,1 10
25.09.2020 12:00:00 11,4 4,3 21 11 26 14 NNE 1008,2 10
25.09.2020 11:00:00 9,9 3,7 16 9 23 12 N 1008,0 10
25.09.2020 10:00:00 9,9 4,2 13 7 22 12 N 1007,0 10
25.09.2020 09:00:00 9,0 3,6 9 5 19 10 NNW 1006,3 10
25.09.2020 08:00:00 8,8 3,8 11 6 24 13 NNW 1004,9 10
25.09.2020 07:00:00 8,4 4,9 15 8 32 17 NW 1003,3 10
25.09.2020 06:00:00 8,4 4,3 16 9 37 20 NW 1002,3 10
25.09.2020 05:00:00 8,5 3,8 21 11 47 26 NNW 1000,9 10
25.09.2020 04:00:00 8,0 4,4 22 12 39 21 NNW 999,2 10
25.09.2020 03:00:00 9,0 5,0 26 14 - - NNW - 10
25.09.2020 02:00:00 7,7 5,7 28 15 50 27 NNW 995,5 8
25.09.2020 01:00:00 7,5 6,0 24 13 45 25 NNW 993,7 7
25.09.2020 00:00:00 7,6 6,3 21 11 42 23 NNW 991,5 8
24.09.2020 23:00:00 7,7 6,4 24 13 41 22 NNW 989,1 8
24.09.2020 22:00:00 7,9 6,8 22 12 45 24 NNW 986,7 7
24.09.2020 21:00:00 8,4 0,0 28 15 49 26 N 984,6 9
24.09.2020 20:00:00 8,3 7,6 9 5 13 7 WSW 983,1 10
24.09.2020 19:00:00 8,0 7,1 9 5 13 7 WSW 982,7 10
24.09.2020 18:00:00 8,1 7,3 8 4 10 6 W 982,0 10
24.09.2020 17:00:00 7,9 6,9 8 4 14 7 NE 981,7 10
24.09.2020 16:00:00 8,0 6,8 8 4 27 15 NE 982,4 9
24.09.2020 15:00:00 7,8 6,2 24 13 38 21 NE 982,1 10
24.09.2020 14:00:00 7,7 6,4 29 16 47 26 NE 983,4 10
24.09.2020 13:00:00 7,4 6,3 34 18 47 26 NE 984,4 10
24.09.2020 12:00:00 7,2 6,1 35 19 48 26 ENE 986,1 10
24.09.2020 11:00:00 7,3 5,8 41 22 56 30 ENE 987,5 10
24.09.2020 10:00:00 7,6 5,2 41 22 61 33 ENE 988,9 10
24.09.2020 09:00:00 7,9 4,7 48 26 67 36 ENE 989,6 10
24.09.2020 08:00:00 8,2 4,6 44 24 63 34 ENE 990,6 10
24.09.2020 07:00:00 8,0 5,4 46 25 63 34 ENE 991,9 10
24.09.2020 06:00:00 8,2 6,3 46 25 58 31 ENE 993,7 10
24.09.2020 05:00:00 8,7 6,1 44 24 58 32 ENE 994,8 10
24.09.2020 04:00:00 9,0 4,5 41 22 57 31 ENE 995,7 10
24.09.2020 03:00:00 8,9 4,8 35 19 52 28 ENE 997,1 10
24.09.2020 02:00:00 8,7 4,9 37 20 49 26 ENE 998,4 10
24.09.2020 01:00:00 8,5 4,5 29 16 41 22 ENE 999,7 10
24.09.2020 00:00:00 8,3 4,9 24 13 35 19 ENE 1000,6 10
23.09.2020 23:00:00 8,3 4,6 24 13 33 18 ENE 1001,1 10
23.09.2020 22:00:00 7,5 3,8 21 11 26 14 NE 1001,7 10
23.09.2020 21:00:00 6,6 3,6 16 9 22 12 NE 1001,9 10
23.09.2020 20:00:00 7,1 3,6 11 6 17 9 NNE 1002,2 10
23.09.2020 19:00:00 8,6 2,9 5 3 12 6 N 1002,0 10
23.09.2020 18:00:00 10,6 3,4 8 4 19 11 NW 1001,9 10
23.09.2020 17:00:00 10,6 3,6 15 8 24 13 WNW 1001,8 10
23.09.2020 16:00:00 10,7 4,3 15 8 24 13 W 1001,4 10
23.09.2020 15:00:00 10,9 4,5 16 9 31 17 WNW 1000,9 10
23.09.2020 14:00:00 10,6 5,3 24 13 37 20 W 999,9 10
23.09.2020 13:00:00 10,0 4,5 21 11 42 23 W 998,9 10
23.09.2020 12:00:00 9,9 0,0 28 15 49 26 W 997,6 10
23.09.2020 11:00:00 9,5 6,4 28 15 43 23 W 996,2 10
23.09.2020 10:00:00 8,8 6,9 29 16 44 24 W 994,3 10
23.09.2020 09:00:00 9,5 8,1 29 16 55 30 W 992,6 7
23.09.2020 08:00:00 10,7 9,5 37 20 64 35 WSW 990,4 7
23.09.2020 07:00:00 11,7 10,6 35 19 61 33 WSW 989,0 6
23.09.2020 06:00:00 14,0 11,4 28 15 45 24 SW 988,2 10

tt = temperature
td = dewpoint
ff = wind speed
fx = gusts
dd = wind direction
ppp = reduced air pressure
vv = visibility

Next stations